STARLINK-5070 (55654 NORAD) Tracking and Keplerian Element Data

This shows tracking and keplerian element data for the satellite.

Feedback or suggestion? Click here.




ElementValue
Catalog55654
NameSTARLINK-5070
Epoch Orbit130
Epoch Day62.91667824
Epoch Year2023
RAAN110.202
Inclination70.0001
Eccentricity0.0003526
Argument of Perigee261.798
Mean Anonmoly332.1039
Mean Motion15.74917281
Decay Rate-0.00972621
L11 55654U 23021AC 23062.91667824 -.00972621 00000+0 -73327-2 0 9991
L22 55654 70.0001 110.2020 0003526 261.7980 332.1039 15.74917281 1300



Live tracking and technical data element details for STARLINK-5070 (NORAD 55654). STARLINK-5070 can be tracked NOW for your location showing map with azimuth and elevation plus other details from your city location.







IsCatalogInMostPopularTable: catalog: 55654, numindb: 1
Update: records affected: 1



GetName: 55654 STARLINK-5070

Hit Count: updated at: Wed, 22 Mar 2023 16:43:21 GMT